Location: Santa Cristina
(46.5667°N, 11.7167°E)
Time: 04:06:37
(UTC+00:00)

Cosmos 1733 - Pass Details

Date: 21 April 2021
Orbit: 503 x 522 km, 82.5° (Epoch: 10 May)

Event Time Altitude Azimuth Distance (km) Brightness Sun altitude
Rises 02:24:22 0° 351° (N) 2,619 7.2 -17.4°
Reaches altitude 10° 02:26:30 10° 353° (N) 1,727 6.3 -17.1°
Maximum altitude 02:30:17 82° 81° (E) 515 3.2 -16.6°
Enters shadow 02:33:51 11° 169° (S) 1,635 5.5 -16.2°
